Regional Weather Roundup
Issued by NWS

Home | Current Version | Previous Version | Graphics & Text | Print | Product List | Glossary Off
Versions: 1 2 3 4 5 6 7 8 9 10 11 12 13 14 15 16 17 18 19 20 21 22 23 24 25 26 27 28 29 30 31 32 33 34 35 36 37 38 39 40 41 42 43 44 45 46 47 48 49 50

000
ASUS43 KBIS 301020
RWRND

NORTH DAKOTA REGIONAL WEATHER ROUNDUP
NATIONAL WEATHER SERVICE BISMARCK ND
500 AM CDT TUE SEP 30 2014

NOTE: "FAIR" INDICATES FEW OR NO CLOUDS BELOW 12,000 FEET WITH NO
SIGNIFICANT WEATHER AND/OR OBSTRUCTIONS TO VISIBILITY.


NDZ001>003-009>011-017-301100-
NORTHWEST NORTH DAKOTA

CITY           SKY/WX    TMP DP  RH WIND       PRES   REMARKS
WILLISTON      LGT RAIN  53  51  93 SE9       29.76F
MINOT          CLOUDY    51  47  86 E10       29.82F
MINOT AFB      CLOUDY    51  49  95 E12       29.82F
$$

NDZ018>021-031>035-040>046-301100-
SOUTHWEST NORTH DAKOTA

CITY           SKY/WX    TMP DP  RH WIND       PRES   REMARKS
BISMARCK       CLOUDY    54  50  86 E13       29.81F
DICKINSON      LGT RAIN  52  51  97 E12       29.73F
GARRISON         N/A     53  51  93 SE12G20   29.80F
HETTINGER ARPT RAIN      52  50  93 E15       29.71F FOG
$$

NDZ004>008-012>016-024-026-027-054-301100-
NORTHEAST NORTH DAKOTA

CITY           SKY/WX    TMP DP  RH WIND       PRES   REMARKS
GRAND FORKS    PTCLDY    43  41  93 SE7       30.00F
GRND FRKS AFB  PTCLDY    41  40  99 SE7       29.99F
DEVILS LAKE    CLOUDY    48  39  71 SE20      29.91F
$$

NDZ022-023-025-028>030-036>039-047>053-301100-
SOUTHEAST NORTH DAKOTA

CITY           SKY/WX    TMP DP  RH WIND       PRES   REMARKS
FARGO          PTCLDY    45  41  86 SE12      29.99F
JAMESTOWN      CLOUDY    48  45  89 SE15G24   29.90F
$$



USA.gov is the U.S. government's official web portal to all federal, state and local government web resources and services.